This is the latest recevied weather packets stored in our database for station/object KK7ISX. If no packets are shown the sender has not sent any weather packets the latest 1 day(s).
| Time | Temp. | Humidity | Pressure | Rain* | Wind** | Luminosity | Snow |
|---|---|---|---|---|---|---|---|
| 1778041353 | 19.44° C | 37% | 1010.5 hPa | 0 mm | 0.89 m/s, 333° | 0 W/m² | - |
| 1778041042 | 20° C | 36% | 1010.5 hPa | 0 mm | 0.89 m/s, 275° | 0 W/m² | - |
| 1778040739 | 20° C | 36% | 1010.4 hPa | 0 mm | 0.89 m/s, 27° | 0 W/m² | - |
| 1778040436 | 20° C | 36% | 1010.5 hPa | 0 mm | 0.89 m/s, 67° | 0 W/m² | - |
| 1778040133 | 20.56° C | 35% | 1010.2 hPa | 0 mm | 0.89 m/s, 22° | 0 W/m² | - |
| 1778039830 | 20.56° C | 35% | 1010 hPa | 0 mm | 0.89 m/s, 9° | 0 W/m² | - |
| 1778039527 | 20.56° C | 35% | 1009.9 hPa | 0 mm | 1.34 m/s, 337° | 0 W/m² | - |
| 1778039224 | 20.56° C | 35% | 1009.9 hPa | 0 mm | 1.34 m/s, 20° | 0 W/m² | - |
| 1778038921 | 21.11° C | 34% | 1009.8 hPa | 0 mm | 2.68 m/s, 2° | 0 W/m² | - |
| 1778038618 | 21.11° C | 35% | 1009.8 hPa | 0 mm | 1.79 m/s, 347° | 0 W/m² | - |
| 1778038315 | 21.11° C | 35% | 1009.6 hPa | 0 mm | 1.79 m/s, 317° | 0 W/m² | - |
| 1778038012 | 21.11° C | 35% | 1009.7 hPa | 0 mm | 0.89 m/s, 230° | 0 W/m² | - |
| 1778037709 | 21.67° C | 35% | 1009.5 hPa | 0 mm | 1.79 m/s, 9° | 0 W/m² | - |
| 1778037405 | 21.67° C | 34% | 1009.4 hPa | 0 mm | 1.34 m/s, 359° | 0 W/m² | - |
| 1778037102 | 21.67° C | 35% | 1009.4 hPa | 0 mm | 0.45 m/s, 115° | 0 W/m² | - |
| 1778036801 | 22.22° C | 35% | 1009.2 hPa | 0 mm | 0.89 m/s, 222° | 1 W/m² | - |
| 1778036498 | 22.22° C | 34% | 1009.3 hPa | 0 mm | 0.89 m/s, 70° | 1 W/m² | - |
| 1778036195 | 22.78° C | 34% | 1009 hPa | 0 mm | 0.89 m/s, 335° | 2 W/m² | - |
| 1778035891 | 22.78° C | 34% | 1008.9 hPa | 0 mm | 1.34 m/s, 328° | 4 W/m² | - |
| 1778035589 | 22.78° C | 33% | 1008.6 hPa | 0 mm | 1.34 m/s, 34° | 6 W/m² | - |
| 1778035284 | 22.78° C | 33% | 1008.6 hPa | 0 mm | 0.89 m/s, 327° | 9 W/m² | - |
| 1778034981 | 23.33° C | 33% | 1008.5 hPa | 0 mm | 0.89 m/s, 39° | 12 W/m² | - |
| 1778034678 | 23.33° C | 32% | 1008.5 hPa | 0 mm | 1.79 m/s, 9° | 15 W/m² | - |
| 1778034375 | 23.89° C | 31% | 1008.5 hPa | 0 mm | 0.45 m/s, 218° | 19 W/m² | - |
| 1778034073 | 23.89° C | 31% | 1008.5 hPa | 0 mm | 2.68 m/s, 33° | 23 W/m² | - |
* Rain latest hour (hover to see other rain measurements)
** Current wind speed in m/s (hover to see current wind gust speed)